Location: Bush Observatory
(40.2653°N, 94.3194°W)
Time: 20:31:57
(UTC-05:00)

Daily predictions for brighter satellites

Satellite Brightness Start Highest point End
(mag) Time Altitude Azimuth Time Altitude Azimuth Time Altitude Azimuth
Meteor 1-19 Rocket 4.3 20:17:06 10° N 20:22:48 86° W 20:28:23 10° S
Spot 2 Rocket 3.9 20:22:22 10° S 20:27:26 71° WSW 20:32:32 10° NNW
Cosmos 2297 Rocket 3.3 20:22:43 10° N 20:27:31 28° NE 20:32:18 10° ESE
ATLAS 2A CENTAUR R/B 3.9 20:29:37 10° SW 20:31:01 11° SW 20:32:08 10° SSW
Cosmos 1570 Rocket 4.1 20:28:57 10° S 20:34:07 56° ESE 20:39:18 10° NNE
Envisat 4.5 20:34:34 10° ESE 20:38:10 20° ENE 20:41:45 10° NNE
Cosmos 1821 Rocket 3.9 20:32:05 10° S 20:38:12 80° E 20:44:18 10° N
Meteor 2-16 Rocket 4.4 20:32:18 10° S 20:38:17 64° E 20:44:18 10° NNE
Cosmos 1605 Rocket 4.3 20:35:08 10° SSE 20:41:11 48° E 20:47:11 10° NNE
CZ-4B DEB 3.0 20:40:19 10° S 20:43:35 75° WSW 20:46:53 10° NNW
Helios 1B rocket 4.1 20:39:47 10° N 20:43:39 40° WNW 20:47:29 10° SW
OAO 2 Rocket 4.2 20:39:58 10° SW 20:44:28 33° SSE 20:48:33 12° ESE
NOSS 7 (E) 4.3 20:41:19 10° SSW 20:44:48 65° ESE 20:48:08 10° NE
Iridium 4 Rocket 4.0 20:47:58 10° NNE 20:52:40 35° E 20:56:50 11° SE
DELTA 2 R/B (1) 3.6 20:50:07 10° W 20:55:43 84° S 21:00:25 15° E
Cosmos 1975 3.4 20:53:29 10° SSE 20:57:17 38° E 21:01:06 10° NNE
Okean 2 3.6 20:53:12 10° N 20:57:23 78° W 21:01:31 10° S
EO 1 Delta rocket 3.9 20:56:30 10° N 21:01:10 84° E 21:06:29 10° S
Cosmos 1697 Rocket 3.4 21:01:09 10° SSE 21:06:01 31° ESE 21:10:54 10° NE
Lacrosse 5 rocket 1.6 21:03:57 10° NNW 21:07:32 44° NE 21:09:24 23° ESE
H-2A R/B 3.3 21:06:31 18° E 21:07:56 22° ENE 21:11:08 10° NNE
Cosmos 2278 3.7 21:02:35 10° SSW 21:08:15 90° ESE 21:13:59 10° NNE
Cosmos 2123 Rocket 4.0 21:04:24 10° N 21:10:37 86° W 21:16:47 10° S
ALOS 3.0 21:06:15 10° S 21:10:49 55° W 21:15:25 10° NNW
ERS-1 Rocket 3.2 21:07:44 15° SE 21:11:41 51° ENE 21:16:33 10° N
Cosmos 1626 Rocket 3.6 21:07:51 10° N 21:12:13 59° E 21:15:36 16° SSE
H-2A R/B 3.5 21:10:05 10° S 21:13:52 54° W 21:17:44 10° NNW
Cosmos 1455 Rocket 3.7 21:11:39 10° SSW 21:15:54 58° W 21:20:12 10° N
Cosmos 1898 Rocket 4.1 21:11:28 10° N 21:16:28 40° ENE 21:19:08 23° ESE
deb Chang Zheng 4 4.5 21:13:05 10° NE 21:16:58 29° E 21:18:17 25° SE
Meteor 1-12 Rocket 4.2 21:13:07 10° S 21:18:49 79° E 21:24:39 10° NNE
Cosmos 1461 2.7 21:14:50 10° NNW 21:18:54 83° WSW 21:21:13 24° SSE
Cosmos 1602 Rocket 3.5 21:16:10 10° N 21:20:39 74° E 21:24:04 17° SSE
Cosmos 2369 3.8 21:15:56 10° SSW 21:21:35 80° WNW 21:27:19 10° NNE
Cosmos 1459 Rocket 4.3 21:21:24 16° SSE 21:25:53 42° E 21:31:34 10° NNE
SL-24 R/B - RUBIN 2 4.3 21:22:10 10° SSW 21:27:52 66° ESE 21:34:17 10° NE
Cosmos 1980 Rocket 3.0 21:26:51 26° SE 21:28:09 28° ESE 21:32:57 10° NE
Cosmos 1939 Rocket 3.0 21:27:38 29° SE 21:29:34 61° ENE 21:33:41 10° N
ARGOS 4.4 21:30:51 21° E 21:32:06 23° ENE 21:36:11 10° NNE
Cosmos 468 Rocket 4.0 21:30:24 10° S 21:35:24 56° ESE 21:40:25 10° NNE
Lacrosse 5 2.7 21:32:43 10° NNW 21:37:27 38° NE 21:39:26 27° E
Cosmos 1153 Rocket 4.5 21:31:49 10° S 21:38:01 87° W 21:44:13 10° N
Cosmos 2084 3.7 21:37:31 10° NNW 21:41:29 51° NE 21:42:21 42° E
SPOT 5 3.2 21:41:21 36° ESE 21:42:57 48° ENE 21:47:38 10° N
Cosmos 1814 Rocket 4.0 21:38:22 10° S 21:43:35 57° ESE 21:48:48 10° NNE
Cosmos 220 Rocket 4.0 21:40:38 10° NNW 21:44:51 73° WSW 21:46:33 35° S
USA 186 4.4 21:42:53 10° SW 21:45:06 18° W 21:47:15 10° NW
Tiangong 1 1.6 21:45:16 10° WNW 21:48:18 50° N 21:48:23 50° N
USA 215 4.3 21:44:53 18° ENE 21:48:53 35° NNE 21:54:40 10° NW
OTV 4 2.1 21:46:23 10° W 21:48:16 26° SW 21:48:16 26° SW
MetOp-B 4.4 21:49:20 39° ESE 21:50:52 51° ENE 21:56:02 10° N
Cosmos 1802 Rocket 4.1 21:47:45 24° SSE 21:51:38 60° E 21:57:57 10° NNE
Cosmos 1606 Rocket 3.9 21:54:42 44° ENE 21:54:42 44° ENE 21:58:32 10° NNE
Cosmos 1500 3.5 21:53:26 24° SSW 21:55:32 62° W 21:59:17 10° N
Cosmos 2227 Rocket 3.2 21:50:45 10° NW 21:56:02 41° WSW 22:00:12 16° S
Cosmos 2263 Rocket 4.3 21:55:07 10° NNE 21:57:04 12° NE 21:58:15 11° ENE
RESURS DK-1 2.7 21:54:15 10° NNW 21:58:17 50° ENE 21:58:17 50° ENE
Cosmos 2322 Rocket 4.3 22:03:23 11° ENE 22:03:23 11° ENE 22:03:38 10° NE
Cosmos 858 Rocket 4.4 21:56:27 10° NNW 22:01:46 89° ENE 22:03:21 47° SSE
Cosmos 1656 4.0 21:56:51 10° SSW 22:02:26 65° WNW 22:07:59 10° NNE
CZ-3C R/B 4.1 21:40:23 10° W 22:05:04 25° SW 22:09:52 18° S
Cosmos 2298 Rocket 4.2 22:01:42 10° NNW 22:06:59 67° WSW 22:08:57 38° S
Cosmos 2016 Rocket 3.8 22:07:39 40° SSE 22:09:55 70° E 22:16:04 10° NNE
Cosmos 1340 3.3 22:06:54 10° N 22:09:50 48° NNE 22:09:50 48° NNE
Cosmos 2297 Rocket 3.1 22:06:23 10° NW 22:11:43 43° WSW 22:14:38 24° SSW
SL-19 R/B 4.2 22:06:32 10° NNE 22:11:55 56° ESE 22:12:00 55° ESE
Cosmos 2227 4.5 22:09:09 10° NNW 22:14:45 51° ENE 22:15:22 49° E
Envisat 3.7 22:14:26 28° SSW 22:16:47 50° W 22:21:44 10° NNW
Cosmos 1726 Rocket 3.9 22:19:24 55° NNE 22:19:24 55° NNE 22:22:55 10° NNE
H-2A R/B 3.2 22:19:51 27° NE 22:19:51 27° NE 22:23:20 10° N
Terra 3.4 22:23:37 22° NE 22:23:37 22° NE 22:26:19 10° NNE
Cosmos 2173 Rocket 4.3 22:17:29 16° SSW 22:22:46 69° W 22:29:07 10° N
Cosmos 1937 Rocket 3.6 22:17:44 10° NNW 22:23:00 74° WSW 22:23:51 61° SSW
YAOGAN 6 3.5 22:24:05 47° NNW 22:24:05 47° NNW 22:26:50 10° NNW
ASTEX 1 3.4 22:20:20 10° N 22:25:22 84° W 22:25:57 69° SSW
Cosmos 1743 3.6 22:28:23 46° W 22:28:27 46° W 22:32:14 10° N
Cosmos 2098 Rocket 4.0 22:26:49 51° SSE 22:28:39 74° E 22:34:46 10° NNE
OAO 2 Rocket 4.2 22:23:57 10° WSW 22:27:31 38° SW 22:27:31 38° SW
Cosmos 1825 Rocket 4.1 22:28:06 10° NNW 22:32:26 54° W 22:32:30 54° W
MetOp-A 4.5 22:36:24 51° SW 22:37:20 59° W 22:42:39 10° NNW
Cosmos 1864 Rocket 4.3 22:37:11 73° SE 22:37:31 75° E 22:43:38 10° N
SPOT 1/Viking Rocket 3.4 22:37:52 88° WNW 22:37:52 88° WNW 22:43:06 10° NNW
Cosmos 990 Rocket 4.0 22:33:31 10° NNW 22:38:46 73° WSW 22:38:50 73° WSW
USA 245 4.4 22:37:45 63° S 22:38:47 82° WSW 22:45:12 10° NNW
Tsikada Rocket 3.9 22:33:33 10° N 22:39:59 74° E 22:40:26 71° ESE
Cosmos 967 Rocket 4.3 22:34:29 10° NNW 22:40:52 81° ENE 22:41:20 75° ESE
Cosmos 1953 Rocket 4.2 22:37:02 10° NNW 22:40:55 56° WNW 22:40:55 56° WNW
DELTA 2 R/B (1) 4.1 22:36:38 10° W 22:41:10 46° SW 22:41:10 46° SW
H-2A R/B 3.6 22:43:39 28° W 22:43:48 28° W 22:47:23 10° NW
CZ-4B R/B 4.0 22:39:33 10° NNE 22:43:00 48° NNE 22:43:00 48° NNE
Lacrosse 5 rocket 3.7 22:44:01 10° W 22:45:09 14° W 22:45:09 14° W
BREEZE-M DEB (TANK) 3.4 22:36:35 10° WSW 22:47:27 68° NNW 22:48:16 57° NNE
BREEZE-M DEB (TANK) 4.0 22:46:12 10° WNW 22:47:27 30° NW 22:47:27 30° NW
Cosmos 1697 Rocket 4.1 22:44:39 10° SW 22:49:50 37° WNW 22:55:04 10° N
SL-16 R/B 3.6 22:57:20 26° NE 22:57:20 26° NE 22:59:50 10° NNE
NOAA 11 4.4 22:57:00 65° W 22:57:00 65° W 23:02:21 10° NNW
Cosmos 1763 Rocket 4.3 23:04:14 44° W 23:04:43 45° WNW 23:09:36 10° N
Cosmos 1125 Rocket 4.1 22:59:38 10° NNW 23:03:32 51° N 23:03:32 51° N
Cosmos 1816 Rocket 4.5 22:59:56 10° N 23:06:06 83° NNW 23:06:06 83° NNW
Cosmos 1725 Rocket 4.3 23:07:24 57° WSW 23:08:08 62° W 23:14:20 10° N
Cosmos 1980 Rocket 3.4 23:08:26 20° WSW 23:11:56 40° WNW 23:17:18 10° N
ARGOS 3.9 23:12:23 47° W 23:12:23 47° W 23:17:11 10° NNW
Milstar 3 Cent rocket 4.3 22:59:49 10° W 23:14:21 38° SSW 23:14:46 38° SSW
Lacrosse 5 3.5 23:15:44 10° WNW 23:18:37 29° W 23:18:37 29° W
USA 215 3.3 23:32:14 71° WNW 23:32:14 71° WNW 23:38:02 10° NW
Cosmos 2233 Rocket 4.4 23:36:30 57° NW 23:36:30 57° NW 23:41:56 10° N
Cosmos 2263 Rocket 3.3 23:36:26 10° NNW 23:39:56 39° N 23:39:56 39° N
Cosmos 2322 Rocket 3.4 23:45:09 38° N 23:45:09 38° N 23:48:48 10° NNE
